User: anonymous   Login
Location: Cormont
(50.5693°N, 1.7416°E)
Time: 20:45:51
(UTC+00:00)
Language:

STARLINK-52 - Orbit

View from above orbital plane
View from above orbital plane
View from above satellite
View from above satellite

Ground track
Ground track

The orbit data is extracted from the following two-line orbital elements,

1 44259U 19029AA  19347.56249777 +.00001233 +00000-0 +39456-4 0  9996
2 44259 053.0029 291.9389 0001817 053.6882 306.4288 15.40748469030401
Epoch (UTC): 13 December 2019 13:29:59
Eccentricity: 0.0001817
inclination: 53.0029°
perigee height: 442 km
apogee height: 445 km
right ascension of ascending node: 291.9389°
argument of perigee: 53.6882°
revolutions per day: 15.40748469
mean anomaly at epoch: 306.4288°
orbit number at epoch: 3040

The dashed part of the orbit path shows where the satellite is in the earth's shadow,  

DLR